Main page
METAR-TAF:

METAR-TAF

Airports :

Carolina Airport

Carolina, Maranhão, Brazil

latitude: 07-19S, longitude: 047-28W, elevation: 183 m

Current weather observation

The report was made 2 hours and 4 minutes ago, at 08:00 UTC
Wind 2 kt from the North/Northeast
Temperature 24°C
Humidity 94%
Pressure 1011 hPa
Visibility 10 km or more
no clouds below 1500 m and no cumulonimbus

METAR: SBCI 240800Z AUTO 02002KT CAVOK 24/23 Q1011

Time: 07:04 (10:04 UTC)


TAF: missing

Weather observations and forecasts of more than 4000 airports (METAR and TAF reports).

The available stations are represented by yellow and red dots on the map.

Hover mouse over dot to see the name of the station.

Then click to see weather observations and forecasts.

To change the map : click on the green buttons with a black cross to zoom in, on the green button with a dash to zoom out, or on the green arrows for adjacent maps.


METAR-TAF: